Flag for U.S.A. Weather past 2 weeks in Greenville, South Carolina, U.S.A.

Now
69 °F

Sunny.


Feels Like: 69 °F
Forecast: 54 / 80 °F
Wind: 7 mph from Northeast

Location: Greenville Downtown Airport

Current Time: May 23, 2015 at 10:19:32 AM

Latest Report: May 23, 2015 at 9:53 AM


Visibility: 10 mi

Pressure: 30.42 "Hg

Humidity: 42%

Dew point: 45 °F

Location of GreenvilleLocation

Historic Weather in Greenville — Graph

°F

Greenville temperature yesterday

Maximum temperature yesterday: 78 °F (at 5:53 PM)
Minimum temperature yesterday: 55 °F (at 5:53 AM)
Average temperature yesterday: 66 °F

Past Weeks' High & Low Weather Summary

 TemperatureHumidityPressure
High90 °F (May 11, 2:53 PM)93% (May 12, 6:53 AM)30.42 "Hg (May 12, 6:53 AM)
Low55 °F (May 22, 5:53 AM)19% (May 13, 4:53 PM)29.80 "Hg (May 21, 5:53 AM)
Average74 °F57%30.12 "Hg
* Reported May 8 8:53 AM — May 23 8:53 AM, Greenville, Weather by CustomWeather, © 2015

Note: Actual official high and low records may vary slightly from our data, if they occured in-between our weather recording intervals... More about our weather records

Advertising

Greenville weather history for previous 24 hours

 ConditionsComfort  
Time TempWeatherWind HumidityBarometerVisibility
8:53 AM
Sat, May 23
66 °FSunny.9 mph45%30.42 "Hg10 mi
7:53 AM62 °FSunny.9 mph48%30.38 "Hg10 mi
6:53 AM60 °FClear.9 mph52%30.36 "Hg10 mi
5:53 AM58 °FClear.7 mph56%30.33 "Hg10 mi
4:53 AM59 °FClear.7 mph54%30.32 "Hg10 mi
3:53 AM60 °FClear.5 mph49%30.30 "Hg10 mi
2:53 AM61 °FClear.5 mph46%30.28 "Hg10 mi
1:53 AM62 °FClear.8 mph44%30.28 "Hg10 mi
12:53 AM63 °FClear.7 mph43%30.28 "Hg10 mi
11:53 PM
Fri, May 22
63 °FClear.6 mph48%30.28 "Hg10 mi
10:53 PM68 °FClear.No wind38%30.26 "Hg10 mi
9:53 PM70 °FClear.5 mph35%30.24 "Hg10 mi
8:53 PM71 °FSunny.3 mph34%30.22 "Hg10 mi
7:53 PM73 °FSunny.6 mph30%30.20 "Hg10 mi
6:53 PM76 °FSunny.3 mph26%30.19 "Hg10 mi
5:53 PM78 °FSunny.3 mph25%30.19 "Hg10 mi
4:53 PM75 °FSunny.6 mph27%30.18 "Hg10 mi
3:53 PM75 °FSunny.8 mph26%30.18 "Hg10 mi
2:53 PM75 °FSunny.10 mph26%30.19 "Hg10 mi
1:53 PM72 °FSunny.3 mph29%30.20 "Hg10 mi
12:53 PM71 °FSunny.6 mph31%30.21 "Hg10 mi
11:53 AM69 °FSunny.7 mph38%30.22 "Hg10 mi
10:53 AM67 °FSunny.7 mph45%30.22 "Hg10 mi
Weather by CustomWeather, © 2015

See weather overviewHow to use our weather pages